| time (UTC) | temp F | wind direction | speed MPH | gust MPH | rain 1hr in | rain 24hr in | rain mn in | humidity % | barometer mb |
| 20260901083048 | 60 | 0 | 0.0 | 0.0 | 0.00 | 0.00 | 0.00 | 94 | 1018.7 |
| 20260901082528 | 60 | 0 | 0.0 | 0.0 | 0.00 | 0.00 | 0.00 | 93 | 1018.7 |
| 20260901082028 | 60 | 0 | 0.0 | 0.0 | 0.00 | 0.00 | 0.00 | 93 | 1018.9 |
| 20260901081548 | 60 | 0 | 0.0 | 0.0 | 0.00 | 0.00 | 0.00 | 93 | 1019.1 |
| 20260901081029 | 60 | 0 | 0.0 | 0.0 | 0.00 | 0.00 | 0.00 | 93 | 1019.1 |
| 20260901080530 | 60 | 0 | 0.0 | 0.0 | 0.00 | 0.00 | 0.00 | 93 | 1019.0 |
| 20260901080057 | 60 | 0 | 0.0 | 0.0 | 0.00 | 0.00 | 0.00 | 93 | 1019.0 |
| 20260901075531 | 60 | 0 | 0.0 | 0.0 | 0.00 | 0.00 | 0.00 | 93 | 1019.0 |
| 20260901075031 | 60 | 0 | 0.0 | 0.0 | 0.00 | 0.00 | 0.00 | 93 | 1018.9 |
| 20260901074555 | 60 | 0 | 0.0 | 2.0 | 0.00 | 0.00 | 0.00 | 93 | 1018.8 |
| 20260901074029 | 60 | 0 | 0.0 | 2.0 | 0.00 | 0.00 | 0.00 | 93 | 1018.8 |
| 20260901073530 | 60 | 58 | 0.0 | 2.0 | 0.00 | 0.00 | 0.00 | 93 | 1018.8 |
| 20260901073047 | 60 | 0 | 0.0 | 0.0 | 0.00 | 0.00 | 0.00 | 93 | 1018.7 |
| 20260901072530 | 60 | 0 | 0.0 | 0.0 | 0.00 | 0.00 | 0.00 | 93 | 1018.8 |
| 20260901072032 | 60 | 0 | 0.0 | 2.0 | 0.00 | 0.00 | 0.00 | 93 | 1018.8 |
| 20260901071557 | 60 | 0 | 0.0 | 2.0 | 0.00 | 0.00 | 0.00 | 93 | 1018.9 |
| 20260901071031 | 60 | 0 | 1.0 | 2.0 | 0.00 | 0.00 | 0.00 | 92 | 1018.9 |
| 20260901070531 | 60 | 0 | 0.0 | 3.0 | 0.00 | 0.00 | 0.00 | 92 | 1019.2 |
| 20260901065533 | 60 | 58 | 2.0 | 4.0 | 0.00 | 0.00 | 0.00 | 92 | 1019.3 |
| 20260901065033 | 61 | 58 | 2.0 | 4.0 | 0.00 | 0.00 | 0.00 | 92 | 1019.4 |
| 20260901064552 | 61 | 58 | 2.0 | 3.0 | 0.00 | 0.00 | 0.00 | 92 | 1019.5 |
| 20260901064036 | 61 | 0 | 0.0 | 0.0 | 0.00 | 0.00 | 0.00 | 92 | 1019.6 |
| 20260901063529 | 61 | 0 | 0.0 | 0.0 | 0.00 | 0.00 | 0.00 | 91 | 1019.8 |
| 20260901063104 | 61 | 0 | 0.0 | 0.0 | 0.00 | 0.00 | 0.00 | 91 | 1019.7 |
| 20260901062532 | 61 | 0 | 0.0 | 0.0 | 0.00 | 0.00 | 0.00 | 91 | 1019.9 |
| 20260901062032 | 61 | 0 | 0.0 | 0.0 | 0.00 | 0.00 | 0.00 | 91 | 1019.8 |
| 20260901061622 | 61 | 0 | 0.0 | 0.0 | 0.00 | 0.00 | 0.00 | 91 | 1019.8 |
| 20260901061033 | 61 | 0 | 0.0 | 0.0 | 0.00 | 0.00 | 0.00 | 91 | 1019.8 |
| 20260901060534 | 61 | 0 | 0.0 | 2.0 | 0.00 | 0.00 | 0.00 | 91 | 1019.7 |
| 20260901060100 | 61 | 0 | 0.0 | 2.0 | 0.00 | 0.00 | 0.00 | 91 | 1019.9 |
| 20260901055529 | 61 | 58 | 1.0 | 3.0 | 0.00 | 0.00 | 0.00 | 91 | 1019.9 |
| 20260901055029 | 61 | 58 | 1.0 | 3.0 | 0.00 | 0.00 | 0.00 | 91 | 1019.8 |
| 20260901054553 | 61 | 58 | 1.0 | 3.0 | 0.00 | 0.00 | 0.00 | 90 | 1019.8 |
| 20260901054032 | 61 | 58 | 1.0 | 3.0 | 0.00 | 0.00 | 0.00 | 90 | 1019.5 |
| 20260901053535 | 62 | 0 | 0.0 | 0.0 | 0.00 | 0.00 | 0.00 | 89 | 1019.6 |
| 20260901053105 | 62 | 0 | 0.0 | 0.0 | 0.00 | 0.00 | 0.00 | 90 | 1019.8 |
| 20260901052528 | 61 | 0 | 0.0 | 0.0 | 0.00 | 0.00 | 0.00 | 90 | 1019.9 |
| 20260901052028 | 61 | 0 | 0.0 | 0.0 | 0.00 | 0.00 | 0.00 | 90 | 1020.1 |
| 20260901051556 | 61 | 0 | 0.0 | 0.0 | 0.00 | 0.00 | 0.00 | 90 | 1020.0 |
| 20260901051029 | 61 | 0 | 0.0 | 0.0 | 0.00 | 0.00 | 0.00 | 90 | 1020.1 |
| 20260901050533 | 62 | 0 | 0.0 | 1.0 | 0.00 | 0.00 | 0.00 | 90 | 1020.1 |
| 20260901050056 | 62 | 0 | 0.0 | 1.0 | 0.00 | 0.00 | 0.00 | 90 | 1020.0 |
| 20260901045535 | 62 | 0 | 0.0 | 1.0 | 0.00 | 0.00 | 0.00 | 90 | 1020.0 |
| 20260901045032 | 62 | 0 | 0.0 | 1.0 | 0.00 | 0.00 | 0.00 | 89 | 1020.0 |
| 20260901044600 | 62 | 0 | 0.0 | 1.0 | 0.00 | 0.00 | 0.00 | 89 | 1019.9 |
| 20260901044032 | 62 | 0 | 0.0 | 0.0 | 0.00 | 0.00 | 0.00 | 90 | 1019.9 |
| 20260901043529 | 62 | 0 | 0.0 | 2.0 | 0.00 | 0.00 | 0.00 | 90 | 1020.0 |
| 20260901043049 | 62 | 0 | 0.0 | 3.0 | 0.00 | 0.00 | 0.00 | 90 | 1020.0 |
| 20260901042528 | 62 | 0 | 1.0 | 3.0 | 0.00 | 0.00 | 0.00 | 90 | 1020.0 |
| 20260901042028 | 62 | 58 | 1.0 | 3.0 | 0.00 | 0.00 | 0.00 | 90 | 1019.9 |
| 20260901041543 | 62 | 227 | 0.0 | 3.0 | 0.00 | 0.00 | 0.00 | 89 | 1019.9 |
| 20260901041100 | 62 | 0 | 0.0 | 0.0 | 0.00 | 0.00 | 0.00 | 89 | 1019.9 |
| 20260901040531 | 62 | 0 | 0.0 | 0.0 | 0.00 | 0.00 | 0.00 | 89 | 1020.0 |
| 20260901040054 | 62 | 0 | 0.0 | 0.0 | 0.00 | 0.00 | 0.00 | 89 | 1020.1 |
| 20260901035530 | 62 | 0 | 0.0 | 0.0 | 0.00 | 0.00 | 0.00 | 88 | 1020.1 |
| 20260901035033 | 62 | 0 | 0.0 | 0.0 | 0.00 | 0.00 | 0.00 | 89 | 1020.0 |
| 20260901034549 | 62 | 0 | 0.0 | 0.0 | 0.00 | 0.00 | 0.00 | 89 | 1019.9 |
| 20260901034032 | 62 | 0 | 0.0 | 0.0 | 0.00 | 0.00 | 0.00 | 88 | 1019.8 |
| 20260901033529 | 62 | 0 | 0.0 | 0.0 | 0.00 | 0.00 | 0.00 | 88 | 1019.9 |
| 20260901033059 | 62 | 0 | 0.0 | 0.0 | 0.00 | 0.00 | 0.00 | 88 | 1020.0 |
| 20260901032533 | 62 | 0 | 0.0 | 0.0 | 0.00 | 0.00 | 0.00 | 88 | 1020.0 |
| 20260901032029 | 62 | 0 | 0.0 | 0.0 | 0.00 | 0.00 | 0.00 | 88 | 1020.0 |
| 20260901031555 | 62 | 0 | 0.0 | 0.0 | 0.00 | 0.00 | 0.00 | 88 | 1020.0 |
| 20260901031028 | 62 | 0 | 0.0 | 0.0 | 0.00 | 0.00 | 0.00 | 89 | 1020.1 |
| 20260901030529 | 62 | 0 | 0.0 | 0.0 | 0.00 | 0.00 | 0.00 | 89 | 1020.3 |
| 20260901030058 | 62 | 0 | 0.0 | 0.0 | 0.00 | 0.00 | 0.00 | 89 | 1020.3 |
| 20260901025533 | 62 | 0 | 0.0 | 0.0 | 0.00 | 0.00 | 0.00 | 89 | 1020.4 |
| 20260901025030 | 62 | 0 | 0.0 | 0.0 | 0.00 | 0.00 | 0.00 | 89 | 1020.3 |
| 20260901024553 | 62 | 0 | 0.0 | 0.0 | 0.00 | 0.00 | 0.00 | 89 | 1020.4 |
| 20260901024034 | 62 | 0 | 0.0 | 0.0 | 0.00 | 0.00 | 0.00 | 89 | 1020.4 |
| 20260901023530 | 62 | 0 | 0.0 | 0.0 | 0.00 | 0.00 | 0.00 | 89 | 1020.4 |
| 20260901023058 | 62 | 0 | 0.0 | 1.0 | 0.00 | 0.00 | 0.00 | 89 | 1020.5 |
| 20260901022531 | 62 | 0 | 0.0 | 1.0 | 0.00 | 0.00 | 0.00 | 89 | 1020.5 |
| 20260901022031 | 62 | 0 | 0.0 | 1.0 | 0.00 | 0.00 | 0.00 | 89 | 1020.5 |
| 20260901021601 | 62 | 0 | 0.0 | 0.0 | 0.00 | 0.00 | 0.00 | 89 | 1020.5 |
| 20260901021028 | 62 | 0 | 0.0 | 2.0 | 0.00 | 0.00 | 0.00 | 89 | 1020.5 |
| 20260901020530 | 62 | 0 | 0.0 | 2.0 | 0.00 | 0.00 | 0.00 | 89 | 1020.4 |
| 20260901020108 | 62 | 215 | 0.0 | 2.0 | 0.00 | 0.00 | 0.00 | 89 | 1020.4 |
| 20260901015529 | 62 | 0 | 0.0 | 0.0 | 0.00 | 0.00 | 0.00 | 89 | 1020.4 |
| 20260901015030 | 62 | 0 | 0.0 | 1.0 | 0.00 | 0.00 | 0.00 | 88 | 1020.4 |
| 20260901014550 | 62 | 0 | 0.0 | 1.0 | 0.00 | 0.00 | 0.00 | 88 | 1020.4 |
| 20260901014033 | 62 | 0 | 0.0 | 1.0 | 0.00 | 0.00 | 0.00 | 88 | 1020.5 |
| 20260901013536 | 62 | 0 | 0.0 | 3.0 | 0.00 | 0.00 | 0.00 | 88 | 1020.4 |
| 20260901013059 | 62 | 0 | 0.0 | 3.0 | 0.00 | 0.00 | 0.00 | 87 | 1020.5 |
| 20260901012529 | 62 | 138 | 1.0 | 3.0 | 0.00 | 0.00 | 0.00 | 87 | 1020.5 |
| 20260901012032 | 63 | 0 | 1.0 | 3.0 | 0.00 | 0.00 | 0.00 | 87 | 1020.5 |
| 20260901011555 | 63 | 0 | 0.0 | 3.0 | 0.00 | 0.00 | 0.00 | 87 | 1020.5 |
| 20260901011029 | 63 | 62 | 1.0 | 3.0 | 0.00 | 0.00 | 0.00 | 86 | 1020.4 |
| 20260901010529 | 63 | 67 | 0.0 | 2.0 | 0.00 | 0.00 | 0.00 | 86 | 1020.4 |
| 20260901010052 | 63 | 0 | 0.0 | 0.0 | 0.00 | 0.00 | 0.00 | 85 | 1020.5 |
| 20260901005529 | 63 | 0 | 0.0 | 0.0 | 0.00 | 0.00 | 0.00 | 84 | 1020.4 |
| 20260901005031 | 64 | 0 | 0.0 | 0.0 | 0.00 | 0.00 | 0.00 | 84 | 1020.4 |
| 20260901004607 | 64 | 0 | 0.0 | 0.0 | 0.00 | 0.00 | 0.00 | 83 | 1020.4 |
| 20260901004029 | 64 | 0 | 0.0 | 0.0 | 0.00 | 0.00 | 0.00 | 83 | 1020.4 |
| 20260901003529 | 64 | 0 | 0.0 | 3.0 | 0.00 | 0.00 | 0.00 | 83 | 1020.4 |
| 20260901003053 | 64 | 0 | 0.0 | 3.0 | 0.00 | 0.00 | 0.00 | 82 | 1020.4 |
| 20260901002529 | 64 | 0 | 1.0 | 4.0 | 0.00 | 0.00 | 0.00 | 82 | 1020.4 |
| 20260901002029 | 65 | 0 | 1.0 | 4.0 | 0.00 | 0.00 | 0.00 | 81 | 1020.3 |
| 20260901001556 | 65 | 0 | 0.0 | 0.0 | 0.00 | 0.00 | 0.00 | 81 | 1020.4 |
| 20260901001033 | 65 | 0 | 0.0 | 0.0 | 0.00 | 0.00 | 0.00 | 80 | 1020.3 |
| 20260901000532 | 65 | 0 | 0.0 | 0.0 | 0.00 | 0.00 | 0.00 | 80 | 1020.4 |
| 20260901000109 | 65 | 0 | 0.0 | 0.0 | 0.00 | 0.00 | 0.00 | 79 | 1020.4 |
| 20260831235533 | 65 | 0 | 0.0 | 0.0 | 0.00 | 0.00 | 0.00 | 79 | 1020.3 |
| 20260831235033 | 65 | 0 | 0.0 | 0.0 | 0.00 | 0.00 | 0.00 | 78 | 1020.3 |
| 20260831234555 | 65 | 0 | 0.0 | 0.0 | 0.00 | 0.00 | 0.00 | 77 | 1020.4 |
| 20260831234033 | 65 | 0 | 0.0 | 0.0 | 0.00 | 0.00 | 0.00 | 78 | 1020.3 |
| 20260831233532 | 65 | 0 | 0.0 | 0.0 | 0.00 | 0.00 | 0.00 | 79 | 1020.3 |
| 20260831233057 | 65 | 0 | 0.0 | 0.0 | 0.00 | 0.00 | 0.00 | 78 | 1020.3 |
| 20260831232529 | 65 | 0 | 0.0 | 0.0 | 0.00 | 0.00 | 0.00 | 79 | 1020.5 |
| 20260831232031 | 65 | 0 | 0.0 | 0.0 | 0.00 | 0.00 | 0.00 | 79 | 1020.5 |
| 20260831231555 | 65 | 0 | 0.0 | 0.0 | 0.00 | 0.00 | 0.00 | 78 | 1020.6 |
| 20260831231029 | 65 | 0 | 0.0 | 2.0 | 0.00 | 0.00 | 0.00 | 77 | 1020.6 |
| 20260831230530 | 66 | 0 | 0.0 | 3.0 | 0.00 | 0.00 | 0.00 | 77 | 1020.7 |
| 20260831230049 | 66 | 0 | 0.0 | 6.0 | 0.00 | 0.00 | 0.00 | 77 | 1020.9 |
| 20260831225531 | 66 | 67 | 1.0 | 6.0 | 0.00 | 0.00 | 0.00 | 77 | 1021.0 |
| 20260831225033 | 66 | 93 | 1.0 | 4.0 | 0.00 | 0.00 | 0.00 | 77 | 1021.1 |
| 20260831224559 | 66 | 94 | 2.0 | 3.0 | 0.00 | 0.00 | 0.00 | 77 | 1021.0 |
| 20260831224029 | 66 | 0 | 0.0 | 6.0 | 0.00 | 0.00 | 0.00 | 78 | 1021.1 |
| 20260831223532 | 67 | 0 | 0.0 | 6.0 | 0.00 | 0.00 | 0.00 | 77 | 1021.1 |
| 20260831223059 | 67 | 0 | 0.0 | 0.0 | 0.00 | 0.00 | 0.00 | 78 | 1021.1 |
| 20260831222532 | 67 | 0 | 0.0 | 4.0 | 0.00 | 0.00 | 0.00 | 77 | 1021.0 |
| 20260831222029 | 67 | 0 | 0.0 | 4.0 | 0.00 | 0.00 | 0.00 | 77 | 1021.0 |
| 20260831221555 | 67 | 0 | 1.0 | 4.0 | 0.00 | 0.00 | 0.00 | 77 | 1021.0 |
| 20260831221033 | 67 | 218 | 1.0 | 4.0 | 0.00 | 0.00 | 0.00 | 76 | 1021.0 |
| 20260831220529 | 68 | 224 | 1.0 | 4.0 | 0.00 | 0.00 | 0.00 | 76 | 1021.0 |
| 20260831220050 | 68 | 0 | 1.0 | 8.0 | 0.00 | 0.00 | 0.00 | 75 | 1020.9 |
| 20260831215532 | 68 | 0 | 0.0 | 8.0 | 0.00 | 0.00 | 0.00 | 76 | 1020.8 |
| 20260831215029 | 68 | 242 | 0.0 | 5.0 | 0.00 | 0.00 | 0.00 | 76 | 1020.8 |
| 20260831214601 | 68 | 239 | 0.0 | 5.0 | 0.00 | 0.00 | 0.00 | 76 | 1020.9 |
| 20260831214031 | 68 | 266 | 2.0 | 5.0 | 0.00 | 0.00 | 0.00 | 74 | 1020.8 |
| 20260831213531 | 69 | 270 | 0.0 | 3.0 | 0.00 | 0.00 | 0.00 | 75 | 1020.8 |
| 20260831213059 | 69 | 250 | 1.0 | 3.0 | 0.00 | 0.00 | 0.00 | 75 | 1020.8 |
| 20260831212528 | 69 | 0 | 0.0 | 3.0 | 0.00 | 0.00 | 0.00 | 74 | 1020.8 |
| 20260831212033 | 69 | 272 | 0.0 | 6.0 | 0.00 | 0.00 | 0.00 | 73 | 1020.9 |
| 20260831211553 | 69 | 241 | 1.0 | 6.0 | 0.00 | 0.00 | 0.00 | 71 | 1020.9 |
| 20260831211028 | 70 | 257 | 0.0 | 6.0 | 0.00 | 0.00 | 0.00 | 72 | 1020.8 |
| 20260831210532 | 70 | 221 | 0.0 | 8.0 | 0.00 | 0.00 | 0.00 | 71 | 1020.8 |
| 20260831210047 | 70 | 262 | 1.0 | 8.0 | 0.00 | 0.00 | 0.00 | 69 | 1020.8 |
| 20260831205532 | 72 | 228 | 2.0 | 8.0 | 0.00 | 0.00 | 0.00 | 67 | 1020.8 |
| 20260831205035 | 73 | 260 | 2.0 | 8.0 | 0.00 | 0.00 | 0.00 | 67 | 1020.9 |
| 20260831204556 | 72 | 0 | 1.0 | 8.0 | 0.00 | 0.00 | 0.00 | 68 | 1020.8 |
| 20260831204034 | 72 | 269 | 2.0 | 8.0 | 0.00 | 0.00 | 0.00 | 67 | 1020.8 |
| 20260831203535 | 72 | 287 | 1.0 | 6.0 | 0.00 | 0.00 | 0.00 | 68 | 1020.9 |
| 20260831203055 | 71 | 258 | 1.0 | 6.0 | 0.00 | 0.00 | 0.00 | 67 | 1020.9 |
| 20260831202531 | 71 | 228 | 1.0 | 4.0 | 0.00 | 0.00 | 0.00 | 69 | 1020.8 |
| 20260831202032 | 70 | 0 | 1.0 | 6.0 | 0.00 | 0.00 | 0.00 | 67 | 1020.8 |
| 20260831201550 | 70 | 300 | 0.0 | 7.0 | 0.00 | 0.00 | 0.00 | 67 | 1020.9 |
| 20260831201028 | 71 | 0 | 1.0 | 7.0 | 0.00 | 0.00 | 0.00 | 65 | 1020.8 |
| 20260831200530 | 72 | 213 | 1.0 | 6.0 | 0.00 | 0.00 | 0.00 | 63 | 1020.8 |
| 20260831200047 | 72 | 0 | 0.0 | 4.0 | 0.00 | 0.00 | 0.00 | 62 | 1020.9 |
| 20260831195530 | 73 | 209 | 1.0 | 5.0 | 0.00 | 0.00 | 0.00 | 58 | 1021.0 |
| 20260831195028 | 74 | 236 | 1.0 | 7.0 | 0.00 | 0.00 | 0.00 | 59 | 1021.1 |
| 20260831194613 | 74 | 174 | 1.0 | 8.0 | 0.00 | 0.00 | 0.00 | 56 | 1021.1 |
| 20260831194029 | 75 | 221 | 2.0 | 8.0 | 0.00 | 0.00 | 0.00 | 57 | 1021.2 |
| 20260831193530 | 74 | 244 | 3.0 | 8.0 | 0.00 | 0.00 | 0.00 | 56 | 1021.2 |
| 20260831193054 | 74 | 276 | 3.0 | 8.0 | 0.00 | 0.00 | 0.00 | 53 | 1021.3 |
| 20260831192528 | 74 | 267 | 2.0 | 7.0 | 0.00 | 0.00 | 0.00 | 55 | 1021.3 |
| 20260831192030 | 74 | 0 | 0.0 | 6.0 | 0.00 | 0.00 | 0.00 | 57 | 1021.4 |
| 20260831191549 | 74 | 211 | 2.0 | 7.0 | 0.00 | 0.00 | 0.00 | 58 | 1021.5 |
| 20260831191029 | 73 | 199 | 2.0 | 7.0 | 0.00 | 0.00 | 0.00 | 61 | 1021.4 |
| 20260831190529 | 73 | 303 | 0.0 | 7.0 | 0.00 | 0.00 | 0.00 | 64 | 1021.4 |
| 20260831190108 | 73 | 254 | 1.0 | 6.0 | 0.00 | 0.00 | 0.00 | 61 | 1021.5 |
| 20260831185532 | 72 | 258 | 1.0 | 7.0 | 0.00 | 0.00 | 0.00 | 62 | 1021.4 |
| 20260831185032 | 72 | 255 | 2.0 | 7.0 | 0.00 | 0.00 | 0.00 | 60 | 1021.5 |
| 20260831184605 | 71 | 259 | 1.0 | 5.0 | 0.00 | 0.00 | 0.00 | 65 | 1021.5 |
| 20260831184031 | 71 | 0 | 0.0 | 3.0 | 0.00 | 0.00 | 0.00 | 65 | 1021.6 |
| 20260831183530 | 71 | 0 | 0.0 | 5.0 | 0.00 | 0.00 | 0.00 | 65 | 1021.7 |
| 20260831183059 | 71 | 0 | 0.0 | 5.0 | 0.00 | 0.00 | 0.00 | 64 | 1021.7 |
| 20260831182529 | 69 | 184 | 0.0 | 5.0 | 0.00 | 0.00 | 0.00 | 73 | 1021.7 |
| 20260831182035 | 68 | 0 | 1.0 | 7.0 | 0.00 | 0.00 | 0.00 | 71 | 1021.7 |
| 20260831181559 | 68 | 95 | 3.0 | 9.0 | 0.00 | 0.00 | 0.00 | 73 | 1021.7 |
| 20260831181028 | 68 | 37 | 5.0 | 9.0 | 0.00 | 0.00 | 0.00 | 72 | 1021.6 |
| 20260831180531 | 68 | 61 | 4.0 | 7.0 | 0.00 | 0.00 | 0.00 | 74 | 1021.6 |
| 20260831180055 | 68 | 0 | 2.0 | 5.0 | 0.00 | 0.00 | 0.00 | 75 | 1021.9 |
| 20260831175532 | 68 | 82 | 2.0 | 5.0 | 0.00 | 0.00 | 0.00 | 72 | 1021.7 |
| 20260831175029 | 69 | 66 | 3.0 | 5.0 | 0.00 | 0.00 | 0.00 | 70 | 1021.7 |
| 20260831174549 | 70 | 70 | 3.0 | 5.0 | 0.00 | 0.00 | 0.00 | 69 | 1021.6 |
| 20260831174031 | 71 | 67 | 0.0 | 0.0 | 0.00 | 0.00 | 0.00 | 69 | 1021.8 |
| 20260831173529 | 71 | 0 | 0.0 | 7.0 | 0.00 | 0.00 | 0.00 | 69 | 1021.9 |
| 20260831173059 | 70 | 0 | 0.0 | 7.0 | 0.00 | 0.00 | 0.00 | 67 | 1021.9 |
| 20260831172529 | 71 | 100 | 2.0 | 7.0 | 0.00 | 0.00 | 0.00 | 63 | 1021.9 |
| 20260831172029 | 71 | 0 | 0.0 | 7.0 | 0.00 | 0.00 | 0.00 | 63 | 1022.0 |
| 20260831171554 | 71 | 0 | 1.0 | 7.0 | 0.00 | 0.00 | 0.00 | 64 | 1022.0 |
| 20260831171032 | 71 | 173 | 1.0 | 7.0 | 0.00 | 0.00 | 0.00 | 62 | 1022.0 |
| 20260831170534 | 71 | 119 | 2.0 | 6.0 | 0.00 | 0.00 | 0.00 | 62 | 1022.0 |
| 20260831170048 | 71 | 106 | 2.0 | 6.0 | 0.00 | 0.00 | 0.00 | 62 | 1022.0 |
| 20260831165530 | 71 | 67 | 0.0 | 4.0 | 0.00 | 0.00 | 0.00 | 63 | 1022.1 |
| 20260831165029 | 71 | 155 | 1.0 | 4.0 | 0.00 | 0.00 | 0.00 | 61 | 1022.3 |
| 20260831164606 | 71 | 0 | 1.0 | 4.0 | 0.00 | 0.00 | 0.00 | 62 | 1022.4 |
| 20260831164030 | 71 | 0 | 0.0 | 5.0 | 0.00 | 0.00 | 0.00 | 64 | 1022.4 |
| 20260831163528 | 71 | 39 | 1.0 | 7.0 | 0.00 | 0.00 | 0.00 | 61 | 1022.5 |
| 20260831163056 | 71 | 194 | 2.0 | 7.0 | 0.00 | 0.00 | 0.00 | 62 | 1022.4 |
| 20260831162533 | 72 | 156 | 1.0 | 6.0 | 0.00 | 0.00 | 0.00 | 60 | 1022.4 |
| 20260831162030 | 72 | 159 | 2.0 | 6.0 | 0.00 | 0.00 | 0.00 | 60 | 1022.4 |
| 20260831161555 | 72 | 182 | 0.0 | 6.0 | 0.00 | 0.00 | 0.00 | 63 | 1022.4 |
| 20260831161035 | 72 | 0 | 0.0 | 6.0 | 0.00 | 0.00 | 0.00 | 63 | 1022.5 |
| 20260831160529 | 71 | 123 | 2.0 | 6.0 | 0.00 | 0.00 | 0.00 | 62 | 1022.5 |
| 20260831160107 | 71 | 117 | 2.0 | 7.0 | 0.00 | 0.00 | 0.00 | 62 | 1022.5 |
| 20260831155536 | 71 | 110 | 2.0 | 7.0 | 0.00 | 0.00 | 0.00 | 61 | 1022.5 |
| 20260831155035 | 71 | 115 | 1.0 | 4.0 | 0.00 | 0.00 | 0.00 | 64 | 1022.4 |
| 20260831154659 | 71 | 249 | 0.0 | 4.0 | 0.00 | 0.00 | 0.00 | 65 | 1022.4 |
| 20260831154032 | 70 | 102 | 1.0 | 5.0 | 0.00 | 0.00 | 0.00 | 63 | 1022.5 |
| 20260831153528 | 70 | 137 | 1.0 | 5.0 | 0.00 | 0.00 | 0.00 | 67 | 1022.5 |
| 20260831153054 | 70 | 0 | 0.0 | 6.0 | 0.00 | 0.00 | 0.00 | 66 | 1022.5 |
| 20260831152528 | 70 | 126 | 2.0 | 6.0 | 0.00 | 0.00 | 0.00 | 68 | 1022.5 |
| 20260831152034 | 69 | 0 | 1.0 | 6.0 | 0.00 | 0.00 | 0.00 | 66 | 1022.5 |
| 20260831151548 | 69 | 168 | 1.0 | 8.0 | 0.00 | 0.00 | 0.00 | 68 | 1022.4 |
| 20260831151029 | 68 | 0 | 0.0 | 8.0 | 0.00 | 0.00 | 0.00 | 66 | 1022.4 |
| 20260831150532 | 68 | 38 | 3.0 | 8.0 | 0.00 | 0.00 | 0.00 | 65 | 1022.4 |
| 20260831150057 | 68 | 59 | 3.0 | 6.0 | 0.00 | 0.00 | 0.00 | 66 | 1022.2 |
| 20260831145534 | 68 | 37 | 2.0 | 5.0 | 0.00 | 0.00 | 0.00 | 66 | 1022.3 |
| 20260831145029 | 68 | 92 | 2.0 | 4.0 | 0.00 | 0.00 | 0.00 | 63 | 1022.6 |
| 20260831144556 | 69 | 84 | 0.0 | 3.0 | 0.00 | 0.00 | 0.00 | 61 | 1022.5 |
| 20260831144032 | 69 | 0 | 0.0 | 3.0 | 0.00 | 0.00 | 0.00 | 61 | 1022.5 |
| 20260831143531 | 70 | 261 | 0.0 | 4.0 | 0.00 | 0.00 | 0.00 | 61 | 1022.4 |
| 20260831143109 | 70 | 225 | 1.0 | 4.0 | 0.00 | 0.00 | 0.00 | 63 | 1022.3 |
| 20260831142532 | 71 | 230 | 1.0 | 4.0 | 0.00 | 0.00 | 0.00 | 61 | 1022.6 |
| 20260831142032 | 71 | 0 | 0.0 | 0.0 | 0.00 | 0.00 | 0.00 | 60 | 1022.4 |
| 20260831141613 | 71 | 0 | 0.0 | 0.0 | 0.00 | 0.00 | 0.00 | 62 | 1022.4 |
| 20260831141031 | 70 | 0 | 0.0 | 0.0 | 0.00 | 0.00 | 0.00 | 61 | 1022.3 |
| 20260831140531 | 69 | 0 | 0.0 | 1.0 | 0.00 | 0.00 | 0.00 | 64 | 1022.4 |
| 20260831140056 | 68 | 0 | 0.0 | 1.0 | 0.00 | 0.00 | 0.00 | 62 | 1022.4 |
| 20260831135531 | 69 | 0 | 0.0 | 3.0 | 0.00 | 0.00 | 0.00 | 64 | 1022.4 |
| 20260831135031 | 68 | 0 | 0.0 | 3.0 | 0.00 | 0.00 | 0.00 | 66 | 1022.3 |
| 20260831134545 | 68 | 0 | 0.0 | 3.0 | 0.00 | 0.00 | 0.00 | 67 | 1022.4 |
| 20260831134029 | 67 | 0 | 0.0 | 7.0 | 0.00 | 0.00 | 0.00 | 67 | 1022.3 |
| 20260831133528 | 66 | 0 | 1.0 | 7.0 | 0.00 | 0.00 | 0.00 | 71 | 1022.3 |
| 20260831133054 | 66 | 96 | 4.0 | 6.0 | 0.00 | 0.00 | 0.00 | 66 | 1022.3 |
| 20260831132529 | 67 | 66 | 1.0 | 5.0 | 0.00 | 0.00 | 0.00 | 69 | 1022.3 |
| 20260831132030 | 67 | 57 | 2.0 | 5.0 | 0.00 | 0.00 | 0.00 | 68 | 1022.3 |
| 20260831131555 | 67 | 60 | 0.0 | 4.0 | 0.00 | 0.00 | 0.00 | 69 | 1022.3 |
| 20260831131029 | 66 | 0 | 0.0 | 2.0 | 0.00 | 0.00 | 0.00 | 72 | 1022.2 |
| 20260831130533 | 66 | 0 | 0.0 | 4.0 | 0.00 | 0.00 | 0.00 | 74 | 1022.3 |
| 20260831130101 | 65 | 0 | 1.0 | 5.0 | 0.00 | 0.00 | 0.00 | 74 | 1022.3 |
| 20260831125531 | 65 | 0 | 0.0 | 5.0 | 0.00 | 0.00 | 0.00 | 76 | 1022.2 |
| 20260831125031 | 64 | 89 | 1.0 | 4.0 | 0.00 | 0.00 | 0.00 | 76 | 1022.2 |
| 20260831124608 | 64 | 0 | 0.0 | 4.0 | 0.00 | 0.00 | 0.00 | 77 | 1022.2 |
| 20260831124033 | 64 | 51 | 0.0 | 3.0 | 0.00 | 0.00 | 0.00 | 79 | 1022.2 |
| 20260831123533 | 63 | 0 | 0.0 | 3.0 | 0.00 | 0.00 | 0.00 | 80 | 1022.2 |
| 20260831123056 | 63 | 0 | 1.0 | 3.0 | 0.00 | 0.00 | 0.00 | 80 | 1022.2 |
| 20260831122532 | 62 | 0 | 0.0 | 2.0 | 0.00 | 0.00 | 0.00 | 80 | 1022.1 |
| 20260831122029 | 62 | 289 | 0.0 | 2.0 | 0.00 | 0.00 | 0.00 | 81 | 1022.1 |
| 20260831121549 | 62 | 188 | 0.0 | 3.0 | 0.00 | 0.00 | 0.00 | 83 | 1022.1 |
| 20260831121031 | 61 | 0 | 0.0 | 3.0 | 0.00 | 0.00 | 0.00 | 84 | 1022.1 |
| 20260831120530 | 61 | 331 | 0.0 | 3.0 | 0.00 | 0.00 | 0.00 | 85 | 1022.1 |
| 20260831120051 | 60 | 100 | 0.0 | 3.0 | 0.00 | 0.00 | 0.00 | 87 | 1022.0 |
| 20260831115529 | 60 | 0 | 0.0 | 3.0 | 0.00 | 0.00 | 0.00 | 88 | 1022.0 |
| 20260831115033 | 59 | 0 | 0.0 | 2.0 | 0.00 | 0.00 | 0.00 | 90 | 1021.9 |
| 20260831114557 | 59 | 0 | 0.0 | 4.0 | 0.00 | 0.00 | 0.00 | 90 | 1021.9 |
| 20260831114029 | 59 | 0 | 1.0 | 4.0 | 0.00 | 0.00 | 0.00 | 91 | 1021.9 |
| 20260831113528 | 58 | 213 | 0.0 | 4.0 | 0.00 | 0.00 | 0.00 | 92 | 1021.7 |
| 20260831113056 | 58 | 0 | 0.0 | 4.0 | 0.00 | 0.00 | 0.00 | 93 | 1021.6 |
| 20260831112529 | 58 | 0 | 0.0 | 4.0 | 0.00 | 0.00 | 0.00 | 94 | 1021.7 |
| 20260831112029 | 57 | 0 | 0.0 | 2.0 | 0.00 | 0.00 | 0.00 | 94 | 1021.6 |
| 20260831111550 | 57 | 0 | 0.0 | 1.0 | 0.00 | 0.00 | 0.00 | 94 | 1021.5 |
| 20260831111030 | 56 | 0 | 0.0 | 4.0 | 0.00 | 0.00 | 0.00 | 94 | 1021.5 |
| 20260831110531 | 56 | 0 | 0.0 | 4.0 | 0.00 | 0.00 | 0.00 | 94 | 1021.4 |
| 20260831110100 | 56 | 0 | 0.0 | 4.0 | 0.00 | 0.00 | 0.00 | 94 | 1021.5 |
| 20260831105530 | 56 | 250 | 0.0 | 2.0 | 0.00 | 0.00 | 0.00 | 94 | 1021.4 |
| 20260831105029 | 56 | 0 | 0.0 | 0.0 | 0.00 | 0.00 | 0.00 | 94 | 1021.4 |
| 20260831104557 | 55 | 0 | 0.0 | 0.0 | 0.00 | 0.00 | 0.00 | 94 | 1021.4 |
| 20260831104030 | 55 | 0 | 0.0 | 0.0 | 0.00 | 0.00 | 0.00 | 94 | 1021.4 |
| 20260831103529 | 55 | 0 | 0.0 | 0.0 | 0.00 | 0.00 | 0.00 | 94 | 1021.5 |
| 20260831103058 | 55 | 0 | 0.0 | 0.0 | 0.00 | 0.00 | 0.00 | 94 | 1021.5 |
| 20260831102529 | 55 | 0 | 0.0 | 0.0 | 0.00 | 0.00 | 0.00 | 93 | 1021.5 |
| 20260831102033 | 55 | 0 | 0.0 | 0.0 | 0.00 | 0.00 | 0.00 | 93 | 1021.5 |
| 20260831101611 | 55 | 0 | 0.0 | 0.0 | 0.00 | 0.00 | 0.00 | 93 | 1021.5 |
| 20260831101034 | 55 | 0 | 0.0 | 0.0 | 0.00 | 0.00 | 0.00 | 93 | 1021.5 |
| 20260831100528 | 55 | 0 | 0.0 | 0.0 | 0.00 | 0.00 | 0.00 | 93 | 1021.4 |
| 20260831100058 | 56 | 0 | 0.0 | 0.0 | 0.00 | 0.00 | 0.00 | 93 | 1021.4 |
| 20260831095532 | 56 | 0 | 0.0 | 0.0 | 0.00 | 0.00 | 0.00 | 93 | 1021.3 |
| 20260831095031 | 56 | 0 | 0.0 | 0.0 | 0.00 | 0.00 | 0.00 | 93 | 1021.4 |
| 20260831094556 | 56 | 0 | 0.0 | 0.0 | 0.00 | 0.00 | 0.00 | 93 | 1021.4 |
| 20260831094027 | 55 | 0 | 0.0 | 1.0 | 0.00 | 0.00 | 0.00 | 93 | 1021.4 |
| 20260831093533 | 55 | 0 | 0.0 | 3.0 | 0.00 | 0.00 | 0.00 | 93 | 1021.2 |
| 20260831093054 | 55 | 0 | 0.0 | 3.0 | 0.00 | 0.00 | 0.00 | 94 | 1021.2 |
| 20260831092529 | 55 | 196 | 0.0 | 2.0 | 0.00 | 0.00 | 0.00 | 94 | 1021.2 |
| 20260831092029 | 55 | 0 | 0.0 | 2.0 | 0.00 | 0.00 | 0.00 | 94 | 1021.1 |
| 20260831091549 | 55 | 0 | 0.0 | 2.0 | 0.00 | 0.00 | 0.00 | 95 | 1021.1 |
| 20260831091034 | 55 | 0 | 0.0 | 2.0 | 0.00 | 0.00 | 0.00 | 95 | 1021.1 |
| 20260831090531 | 55 | 0 | 0.0 | 2.0 | 0.00 | 0.00 | 0.00 | 95 | 1021.1 |
| 20260831090103 | 55 | 0 | 0.0 | 2.0 | 0.00 | 0.00 | 0.00 | 95 | 1021.1 |
| 20260831085530 | 56 | 0 | 0.0 | 3.0 | 0.00 | 0.00 | 0.00 | 94 | 1021.1 |
| 20260831085030 | 56 | 0 | 0.0 | 3.0 | 0.00 | 0.00 | 0.00 | 94 | 1021.1 |
| 20260831084556 | 56 | 234 | 0.0 | 4.0 | 0.00 | 0.00 | 0.00 | 95 | 1021.0 |
| 20260831084035 | 56 | 215 | 0.0 | 4.0 | 0.00 | 0.00 | 0.00 | 95 | 1021.0 |
| 20260831083531 | 56 | 228 | 1.0 | 4.0 | 0.00 | 0.00 | 0.00 | 95 | 1021.0 |